RH
79 81 89 98 98 99 99 98 98 92 80 69 66 67 50 52 49 45 42 35 32 32 38 36 34 31 25 25 21 19 25 33 27 31 26 25 27 36 41 55 58 49 51 46
78 80 84 91 98 92 92 98 98 85 74 71 69 62 55 51 48 45 45 37 33 37 40 43 35 34 26 25 22 25 18 30 34 28 29 24 27 29 32 39 42 50 52 56
71 74 88 98 97 97 90 93 94 96 83 71 64 53 53 50 46 48 41 37 37 42 41 39 36 30 26 24 22 20 18 28 39 38 33 31 36 32 29 34 50 52 42 42
63 89 98 98 99 99 95 94 83 73 83 70 60 62 56 47 46 42 41 38 39 44 47 39 33 27 24 19 20 15 21 24 19 17 18 19 26 26 32 38 35 40 47 37
77 81 91 95 99 98 96 94 85 80 77 69 67 65 56 48 44 38 38 41 45 44 45 40 33 24 20 17 19 21 18 24 20 23 21 22 22 22 24 31 31 36 33 35
83 87 89 82 96 97 94 93 83 71 65 62 62 56 51 48 37 41 43 46 46 45 44 39 27 23 19 20 18 23 22 26 23 27 22 26 27 25 23 25 30 28 33 37
84 96 80 83 95 90 94 91 74 66 65 63 60 61 48 40 38 42 46 48 47 44 41 37 26 25 20 20 22 23 24 24 22 27 26 39 25 15 17 23 25 28 27 27
87 96 84 88 97 96 95 90 74 69 71 73 67 51 44 44 49 51 52 51 48 45 43 38 29 25 22 22 23 22 21 23 28 32 28 21 19 19 18 20 22 23 25 26
88 87 84 92 97 99 96 82 77 70 74 62 50 48 49 49 52 53 52 50 47 46 44 42 30 26 19 21 21 21 21 24 32 32 35 27 24 19 19 21 28 22 24 25
93 97 88 91 96 96 94 84 81 77 71 59 54 48 47 49 50 52 50 48 48 49 50 53 36 29 20 25 21 25 25 30 41 44 44 32 23 21 22 28 35 22 23 27
96 93 90 94 92 95 93 80 77 76 70 64 62 55 54 55 52 47 48 51 54 54 56 49 40 34 24 23 15 22 25 28 34 38 48 48 23 23 23 27 24 22 25 29
96 97 88 94 94 96 91 84 84 80 73 70 68 64 67 64 54 47 51 55 53 54 53 48 47 43 34 26 23 19 24 24 34 30 34 27 21 22 19 22 24 25 29 31
91 98 92 96 96 94 89 86 76 81 71 74 74 71 61 56 52 50 53 53 52 47 45 48 46 39 31 29 22 24 20 23 24 27 21 23 23 20 21 21 23 27 30 31
95 98 98 98 98 92 82 71 69 72 68 77 76 71 65 65 62 58 57 52 49 46 39 39 36 32 27 25 19 20 20 19 21 21 19 19 20 19 21 21 23 25 29 29
95 93 86 97 95 84 80 86 80 73 77 79 80 74 67 65 63 57 51 50 50 48 48 41 37 36 30 19 20 18 17 17 20 20 19 19 18 18 18 21 22 25 27 30
88 83 79 83 84 85 90 85 82 82 82 82 82 76 70 66 62 57 54 53 51 54 49 46 38 34 20 19 16 12 11 15 16 17 18 19 19 18 18 21 22 25 29 31
91 96 95 98 97 97 91 84 82 85 80 78 78 76 73 67 62 59 57 53 53 50 51 45 38 26 18 14 14 11 10 12 15 15 17 18 18 19 19 21 23 26 30 31
93 97 98 98 97 97 96 94 90 86 79 74 75 78 75 70 62 58 55 55 55 52 50 49 37 29 25 17 12 11 10 10 11 13 14 16 17 19 20 22 23 26 28 31
96 98 99 98 97 96 94 92 88 80 76 74 73 73 71 62 57 57 58 56 54 53 45 44 40 30 29 14 10 10 10 10 11 13 15 15 16 19 20 23 25 28 29 31
97 98 98 98 97 95 91 85 77 75 71 72 69 66 64 58 62 60 57 54 52 53 45 46 47 39 25 13 10 10 10 11 12 12 13 13 15 16 20 24 26 28 30 31
98 98 96 98 97 96 94 94 90 83 76 72 70 66 58 61 61 59 56 50 46 45 43 47 42 40 28 10 10 10 10 12 12 11 13 13 13 15 20 23 26 27 30 31
86 83 96 98 97 97 96 89 84 76 72 69 66 63 61 60 59 55 50 45 42 41 43 41 43 32 13 11 12 11 12 15 12 12 12 14 15 17 20 24 26 26 29 31
90 89 93 97 94 94 85 86 75 70 63 65 59 60 60 61 58 55 49 47 44 39 41 43 31 18 14 12 13 14 11 12 12 13 15 16 17 19 22 24 24 26 28 31
84 86 90 84 82 75 68 65 63 59 60 61 61 61 55 56 55 52 52 47 46 44 45 37 24 17 16 16 12 12 11 12 13 15 19 18 17 20 23 24 24 26 29 33
79 76 83 70 66 65 66 60 58 60 62 58 60 56 53 55 53 49 49 52 51 42 39 29 24 22 20 17 13 13 12 14 16 18 19 18 19 23 25 25 27 30 33 35
76 70 73 67 69 67 65 61 58 61 58 58 56 50 49 49 50 51 56 46 43 41 39 29 24 18 14 17 14 15 15 16 20 20 22 21 24 26 26 26 29 32 35 35
74 71 66 69 67 63 58 59 56 56 56 58 50 51 49 50 55 52 47 49 46 42 42 34 23 21 17 17 17 18 18 20 22 24 25 26 28 29 28 30 33 34 35 36